| time (UTC) | temp F | wind direction | speed knots | gust knots | rain 1hr in | rain 24hr in | rain mn in | humidity % | barometer mb |
| 20260901131544 | 86 | 294 | 4.3 | 8.7 | 0.00 | 0.00 | 0.00 | 11 | 1008.3 |
| 20260901130054 | 87 | 244 | 7.0 | 11.3 | 0.00 | 0.00 | 0.00 | 12 | 1008.3 |
| 20260901124542 | 87 | 296 | 6.1 | 12.2 | 0.00 | 0.00 | 0.00 | 12 | 1008.3 |
| 20260901121539 | 87 | 298 | 7.8 | 13.0 | 0.00 | 0.00 | 0.00 | 12 | 1007.9 |
| 20260901120039 | 87 | 273 | 7.8 | 14.8 | 0.00 | 0.00 | 0.00 | 12 | 1008.0 |
| 20260901114550 | 87 | 311 | 7.0 | 13.9 | 0.00 | 0.00 | 0.00 | 13 | 1008.0 |
| 20260901111542 | 87 | 254 | 7.8 | 11.3 | 0.00 | 0.00 | 0.00 | 15 | 1007.8 |
| 20260901110039 | 87 | 283 | 7.0 | 11.3 | 0.00 | 0.00 | 0.00 | 15 | 1007.5 |
| 20260901104536 | 86 | 262 | 7.0 | 12.2 | 0.00 | 0.00 | 0.00 | 16 | 1007.5 |
| 20260901101531 | 86 | 269 | 4.3 | 7.8 | 0.00 | 0.00 | 0.00 | 17 | 1007.7 |
| 20260901100027 | 87 | 300 | 5.2 | 9.6 | 0.00 | 0.00 | 0.00 | 17 | 1008.0 |
| 20260901094536 | 87 | 309 | 5.2 | 8.7 | 0.00 | 0.00 | 0.00 | 18 | 1008.1 |
| 20260901091623 | 88 | 299 | 7.8 | 12.2 | 0.00 | 0.00 | 0.00 | 17 | 1008.0 |
| 20260901090020 | 88 | 296 | 7.0 | 11.3 | 0.00 | 0.00 | 0.00 | 17 | 1008.1 |
| 20260901084518 | 88 | 302 | 2.6 | 11.3 | 0.00 | 0.00 | 0.00 | 17 | 1008.1 |
| 20260901081514 | 89 | 308 | 8.7 | 15.6 | 0.00 | 0.00 | 0.00 | 15 | 1007.7 |
| 20260901080015 | 89 | 283 | 8.7 | 16.5 | 0.00 | 0.00 | 0.00 | 16 | 1007.7 |
| 20260901074512 | 89 | 288 | 7.8 | 14.8 | 0.00 | 0.00 | 0.00 | 16 | 1007.7 |
| 20260901071507 | 89 | 313 | 3.5 | 12.2 | 0.00 | 0.00 | 0.00 | 15 | 1007.5 |
| 20260901070004 | 90 | 294 | 8.7 | 13.0 | 0.00 | 0.00 | 0.00 | 15 | 1007.5 |
| 20260901064513 | 90 | 292 | 6.1 | 11.3 | 0.00 | 0.00 | 0.00 | 17 | 1007.6 |
| 20260901061503 | 90 | 287 | 7.0 | 12.2 | 0.00 | 0.00 | 0.00 | 17 | 1007.5 |
| 20260901060002 | 90 | 296 | 7.0 | 13.0 | 0.00 | 0.00 | 0.00 | 16 | 1007.3 |
| 20260901054502 | 91 | 288 | 7.8 | 15.6 | 0.00 | 0.00 | 0.00 | 17 | 1007.3 |
| 20260901051502 | 91 | 306 | 11.3 | 16.5 | 0.00 | 0.00 | 0.00 | 15 | 1007.3 |
| 20260901050002 | 91 | 273 | 7.8 | 13.0 | 0.00 | 0.00 | 0.00 | 16 | 1007.1 |
| 20260901044507 | 91 | 267 | 8.7 | 14.8 | 0.00 | 0.00 | 0.00 | 17 | 1007.2 |
| 20260901043101 | 92 | 299 | 6.1 | 11.3 | 0.00 | 0.00 | 0.00 | 18 | 1007.2 |
| 20260901041605 | 92 | 291 | 8.7 | 13.0 | 0.00 | 0.00 | 0.00 | 18 | 1006.8 |
| 20260901034602 | 92 | 282 | 5.2 | 10.4 | 0.00 | 0.00 | 0.00 | 23 | 1006.6 |
| 20260901033119 | 92 | 302 | 6.1 | 12.2 | 0.00 | 0.00 | 0.00 | 23 | 1006.4 |
| 20260901031559 | 93 | 301 | 4.3 | 12.2 | 0.00 | 0.00 | 0.00 | 24 | 1006.4 |
| 20260901030200 | 94 | 304 | 6.1 | 10.4 | 0.00 | 0.00 | 0.00 | 26 | 1006.2 |
| 20260901024557 | 94 | 308 | 7.0 | 13.0 | 0.00 | 0.00 | 0.00 | 26 | 1006.0 |
| 20260901023056 | 94 | 284 | 8.7 | 13.9 | 0.00 | 0.00 | 0.00 | 26 | 1005.8 |
| 20260901021603 | 95 | 267 | 8.7 | 16.5 | 0.00 | 0.00 | 0.00 | 26 | 1005.4 |
| 20260901014557 | 98 | 299 | 8.7 | 13.9 | 0.00 | 0.00 | 0.00 | 24 | 1005.2 |
| 20260901013112 | 99 | 265 | 9.6 | 17.4 | 0.00 | 0.00 | 0.00 | 23 | 1004.9 |
| 20260901011612 | 100 | 272 | 9.6 | 15.6 | 0.00 | 0.00 | 0.00 | 22 | 1004.9 |
| 20260901004555 | 101 | 281 | 10.4 | 19.1 | 0.00 | 0.00 | 0.00 | 21 | 1004.6 |
| 20260901003054 | 102 | 269 | 8.7 | 22.6 | 0.00 | 0.00 | 0.00 | 20 | 1004.6 |
| 20260901001552 | 103 | 265 | 11.3 | 18.2 | 0.00 | 0.00 | 0.00 | 19 | 1004.6 |
| 20260831234559 | 104 | 289 | 10.4 | 16.5 | 0.00 | 0.00 | 0.00 | 18 | 1005.0 |
| 20260831233051 | 105 | 299 | 9.6 | 20.9 | 0.00 | 0.00 | 0.00 | 18 | 1005.1 |
| 20260831231551 | 105 | 266 | 8.7 | 15.6 | 0.00 | 0.00 | 0.00 | 18 | 1005.2 |
| 20260831224548 | 106 | 222 | 8.7 | 13.9 | 0.00 | 0.00 | 0.00 | 16 | 1005.3 |
| 20260831223050 | 106 | 295 | 7.8 | 14.8 | 0.00 | 0.00 | 0.00 | 16 | 1005.3 |
| 20260831221600 | 106 | 277 | 9.6 | 13.9 | 0.00 | 0.00 | 0.00 | 16 | 1005.6 |
| 20260831214552 | 108 | 348 | 3.5 | 11.3 | 0.00 | 0.00 | 0.00 | 15 | 1005.9 |
| 20260831213043 | 108 | 207 | 5.2 | 8.7 | 0.00 | 0.00 | 0.00 | 13 | 1006.2 |
| 20260831211546 | 107 | 105 | 2.6 | 7.0 | 0.00 | 0.00 | 0.00 | 14 | 1006.5 |
| 20260831204538 | 104 | 86 | 2.6 | 11.3 | 0.00 | 0.00 | 0.00 | 14 | 1006.8 |
| 20260831203046 | 106 | 106 | 3.5 | 7.0 | 0.00 | 0.00 | 0.00 | 13 | 1007.1 |
| 20260831201537 | 104 | 165 | 1.7 | 7.8 | 0.00 | 0.00 | 0.00 | 14 | 1007.3 |
| 20260831194530 | 103 | 76 | 6.1 | 10.4 | 0.00 | 0.00 | 0.00 | 14 | 1007.7 |
| 20260831193029 | 104 | 98 | 5.2 | 9.6 | 0.00 | 0.00 | 0.00 | 13 | 1007.7 |
| 20260831191525 | 104 | 125 | 4.3 | 8.7 | 0.00 | 0.00 | 0.00 | 14 | 1008.0 |
| 20260831184519 | 102 | 111 | 7.8 | 12.2 | 0.00 | 0.00 | 0.00 | 14 | 1008.0 |
| 20260831183015 | 103 | 117 | 7.0 | 10.4 | 0.00 | 0.00 | 0.00 | 14 | 1008.1 |
| 20260831181511 | 102 | 128 | 2.6 | 8.7 | 0.00 | 0.00 | 0.00 | 13 | 1008.0 |
| 20260831174505 | 102 | 199 | 5.2 | 7.8 | 0.00 | 0.00 | 0.00 | 13 | 1008.0 |
| 20260831173001 | 101 | 275 | 7.0 | 11.3 | 0.00 | 0.00 | 0.00 | 14 | 1007.9 |
| 20260831171557 | 100 | 254 | 4.3 | 7.8 | 0.00 | 0.00 | 0.00 | 14 | 1008.0 |
| 20260831170155 | 99 | 284 | 6.1 | 11.3 | 0.00 | 0.00 | 0.00 | 14 | 1008.1 |
| 20260831164549 | 99 | 258 | 7.0 | 14.8 | 0.00 | 0.00 | 0.00 | 15 | 1007.9 |
| 20260831163044 | 98 | 270 | 6.1 | 10.4 | 0.00 | 0.00 | 0.00 | 16 | 1007.9 |
| 20260831161544 | 98 | 246 | 7.0 | 13.0 | 0.00 | 0.00 | 0.00 | 16 | 1007.8 |
| 20260831160136 | 97 | 242 | 4.3 | 10.4 | 0.00 | 0.00 | 0.00 | 16 | 1007.8 |
| 20260831154535 | 97 | 261 | 4.3 | 9.6 | 0.00 | 0.00 | 0.00 | 15 | 1007.8 |
| 20260831153030 | 96 | 244 | 4.3 | 12.2 | 0.00 | 0.00 | 0.00 | 17 | 1007.8 |
| 20260831151529 | 95 | 272 | 5.2 | 10.4 | 0.00 | 0.00 | 0.00 | 17 | 1007.6 |
| 20260831150023 | 94 | 225 | 4.3 | 10.4 | 0.00 | 0.00 | 0.00 | 16 | 1007.3 |
| 20260831144517 | 93 | 246 | 3.5 | 8.7 | 0.00 | 0.00 | 0.00 | 15 | 1007.3 |
| 20260831143014 | 91 | 248 | 5.2 | 10.4 | 0.00 | 0.00 | 0.00 | 14 | 1007.2 |
| 20260831141509 | 89 | 309 | 4.3 | 8.7 | 0.00 | 0.00 | 0.00 | 13 | 1007.0 |
| 20260831140105 | 88 | 286 | 6.1 | 13.0 | 0.00 | 0.00 | 0.00 | 14 | 1006.9 |
| 20260831134502 | 87 | 301 | 7.0 | 11.3 | 0.00 | 0.00 | 0.00 | 14 | 1006.6 |
| 20260831133104 | 87 | 274 | 7.0 | 12.2 | 0.00 | 0.00 | 0.00 | 14 | 1006.4 |